Year,Month,Day,Hour,Minute,Value (Times are PST for temperature in C)
2015,07,05,00,00,20.20
2015,07,05,00,01,20.20
2015,07,05,00,02,20.10
2015,07,05,00,03,20.10
2015,07,05,00,04,20.10
2015,07,05,00,05,20.10
2015,07,05,00,06,20.10
2015,07,05,00,07,20.00
2015,07,05,00,08,20.00
2015,07,05,00,09,20.00
2015,07,05,00,10,20.00
2015,07,05,00,11,20.00
2015,07,05,00,12,20.00
2015,07,05,00,13,20.00
2015,07,05,00,14,19.90
2015,07,05,00,15,19.90
2015,07,05,00,16,19.90
2015,07,05,00,17,19.90
2015,07,05,00,18,19.90
2015,07,05,00,19,20.00
2015,07,05,00,20,20.00
2015,07,05,00,21,20.00
2015,07,05,00,22,20.00
2015,07,05,00,23,20.00
2015,07,05,00,24,19.90
2015,07,05,00,25,20.00
2015,07,05,00,26,20.00
2015,07,05,00,27,20.00
2015,07,05,00,28,20.00
2015,07,05,00,29,20.00
2015,07,05,00,30,20.00
2015,07,05,00,31,20.00
2015,07,05,00,32,20.00
2015,07,05,00,33,20.00
2015,07,05,00,34,20.00
2015,07,05,00,35,19.90
2015,07,05,00,36,19.90
2015,07,05,00,37,19.90
2015,07,05,00,38,19.90
2015,07,05,00,39,19.80
2015,07,05,00,40,19.80
2015,07,05,00,41,19.80
2015,07,05,00,42,19.80
2015,07,05,00,43,19.80
2015,07,05,00,44,19.70
2015,07,05,00,45,19.70
2015,07,05,00,46,19.70
2015,07,05,00,47,19.70
2015,07,05,00,48,19.60
2015,07,05,00,49,19.60
2015,07,05,00,50,19.60
2015,07,05,00,51,19.60
2015,07,05,00,52,19.50
2015,07,05,00,53,19.50
2015,07,05,00,54,19.50
2015,07,05,00,55,19.40
2015,07,05,00,56,19.40
2015,07,05,00,57,19.40
2015,07,05,00,58,19.40
2015,07,05,00,59,19.30
2015,07,05,01,00,19.30
2015,07,05,01,01,19.30
2015,07,05,01,02,19.40
2015,07,05,01,03,19.40
2015,07,05,01,04,19.40
2015,07,05,01,05,19.40
2015,07,05,01,06,19.40
2015,07,05,01,07,19.40
2015,07,05,01,08,19.40
2015,07,05,01,09,19.40
2015,07,05,01,10,19.40
2015,07,05,01,11,19.40
2015,07,05,01,12,19.40
2015,07,05,01,13,19.40
2015,07,05,01,14,19.30
2015,07,05,01,15,19.30
2015,07,05,01,16,19.30
2015,07,05,01,17,19.30
2015,07,05,01,18,19.30
2015,07,05,01,19,19.30
2015,07,05,01,20,19.30
2015,07,05,01,21,19.30
2015,07,05,01,22,19.20
2015,07,05,01,23,19.20
2015,07,05,01,24,19.20
2015,07,05,01,25,19.20
2015,07,05,01,26,19.20
2015,07,05,01,27,19.10
2015,07,05,01,28,19.10
2015,07,05,01,29,19.10
2015,07,05,01,30,19.10
2015,07,05,01,31,19.10
2015,07,05,01,32,19.10
2015,07,05,01,33,19.00
2015,07,05,01,34,19.00
2015,07,05,01,35,19.00
2015,07,05,01,36,18.90
2015,07,05,01,37,18.90
2015,07,05,01,38,18.90
2015,07,05,01,39,18.80
2015,07,05,01,40,18.80
2015,07,05,01,41,18.80
2015,07,05,01,42,18.80
2015,07,05,01,43,18.70
2015,07,05,01,44,18.70
2015,07,05,01,45,18.60
2015,07,05,01,46,18.60
2015,07,05,01,47,18.50
2015,07,05,01,48,18.50
2015,07,05,01,49,18.40
2015,07,05,01,50,18.40
2015,07,05,01,51,18.30
2015,07,05,01,52,18.30
2015,07,05,01,53,18.30
2015,07,05,01,54,18.20
2015,07,05,01,55,18.20
2015,07,05,01,56,18.20
2015,07,05,01,57,18.20
2015,07,05,01,58,18.20
2015,07,05,01,59,18.20
2015,07,05,02,00,18.10
2015,07,05,02,01,18.10
2015,07,05,02,02,18.10
2015,07,05,02,03,18.10
2015,07,05,02,04,18.10
2015,07,05,02,05,18.00
2015,07,05,02,06,18.10
2015,07,05,02,07,18.10
2015,07,05,02,08,18.10
2015,07,05,02,09,18.10
2015,07,05,02,10,18.10
2015,07,05,02,11,18.10
2015,07,05,02,12,18.10
2015,07,05,02,13,18.10
2015,07,05,02,14,18.10
2015,07,05,02,15,18.10
2015,07,05,02,16,18.10
2015,07,05,02,17,18.10
2015,07,05,02,18,18.10
2015,07,05,02,19,18.10
2015,07,05,02,20,18.20
2015,07,05,02,21,18.10
2015,07,05,02,22,18.10
2015,07,05,02,23,18.10
2015,07,05,02,24,18.10
2015,07,05,02,25,18.10
2015,07,05,02,26,18.10
2015,07,05,02,27,18.10
2015,07,05,02,28,18.10
2015,07,05,02,29,18.00
2015,07,05,02,30,18.00
2015,07,05,02,31,18.00
2015,07,05,02,32,18.00
2015,07,05,02,33,18.00
2015,07,05,02,34,17.90
2015,07,05,02,35,17.90
2015,07,05,02,36,17.90
2015,07,05,02,37,17.90
2015,07,05,02,38,17.90
2015,07,05,02,39,17.90
2015,07,05,02,40,17.90
2015,07,05,02,41,17.90
2015,07,05,02,42,17.90
2015,07,05,02,43,17.80
2015,07,05,02,44,17.80
2015,07,05,02,45,17.80
2015,07,05,02,46,17.80
2015,07,05,02,47,17.80
2015,07,05,02,48,17.80
2015,07,05,02,49,17.80
2015,07,05,02,50,17.80
2015,07,05,02,51,17.80
2015,07,05,02,52,17.80
2015,07,05,02,53,17.80
2015,07,05,02,54,17.80
2015,07,05,02,55,17.80
2015,07,05,02,56,17.80
2015,07,05,02,57,17.80
2015,07,05,02,58,17.80
2015,07,05,02,59,17.70
2015,07,05,03,00,17.70
2015,07,05,03,01,17.70
2015,07,05,03,02,17.70
2015,07,05,03,03,17.70
2015,07,05,03,04,17.70
2015,07,05,03,05,17.70
2015,07,05,03,06,17.70
2015,07,05,03,07,17.70
2015,07,05,03,08,17.70
2015,07,05,03,09,17.70
2015,07,05,03,10,17.70
2015,07,05,03,11,17.60
2015,07,05,03,12,17.60
2015,07,05,03,13,17.60
2015,07,05,03,14,17.60
2015,07,05,03,15,17.60
2015,07,05,03,16,17.50
2015,07,05,03,17,17.50
2015,07,05,03,18,17.50
2015,07,05,03,19,17.40
2015,07,05,03,20,17.40
2015,07,05,03,21,17.40
2015,07,05,03,22,17.40
2015,07,05,03,23,17.40
2015,07,05,03,24,17.40
2015,07,05,03,25,17.40
2015,07,05,03,26,17.40
2015,07,05,03,27,17.40
2015,07,05,03,28,17.40
2015,07,05,03,29,17.40
2015,07,05,03,30,17.40
2015,07,05,03,31,17.40
2015,07,05,03,32,17.40
2015,07,05,03,33,17.40
2015,07,05,03,34,17.40
2015,07,05,03,35,17.40
2015,07,05,03,36,17.40
2015,07,05,03,37,17.40
2015,07,05,03,38,17.40
2015,07,05,03,39,17.40
2015,07,05,03,40,17.40
2015,07,05,03,41,17.40
2015,07,05,03,42,17.40
2015,07,05,03,43,17.40
2015,07,05,03,44,17.40
2015,07,05,03,45,17.40
2015,07,05,03,46,17.40
2015,07,05,03,47,17.30
2015,07,05,03,48,17.30
2015,07,05,03,49,17.30
2015,07,05,03,50,17.30
2015,07,05,03,51,17.30
2015,07,05,03,52,17.20
2015,07,05,03,53,17.20
2015,07,05,03,54,17.20
2015,07,05,03,55,17.20
2015,07,05,03,56,17.20
2015,07,05,03,57,17.20
2015,07,05,03,58,17.20
2015,07,05,03,59,17.20
2015,07,05,04,00,17.20
2015,07,05,04,01,17.20
2015,07,05,04,02,17.30
2015,07,05,04,03,17.30
2015,07,05,04,04,17.30
2015,07,05,04,05,17.30
2015,07,05,04,06,17.30
2015,07,05,04,07,17.30
2015,07,05,04,08,17.30
2015,07,05,04,09,17.30
2015,07,05,04,10,17.40
2015,07,05,04,11,17.40
2015,07,05,04,12,17.40
2015,07,05,04,13,17.40
2015,07,05,04,14,17.40
2015,07,05,04,15,17.40
2015,07,05,04,16,17.30
2015,07,05,04,17,17.40
2015,07,05,04,18,17.30
2015,07,05,04,19,17.30
2015,07,05,04,20,17.30
2015,07,05,04,21,17.30
2015,07,05,04,22,17.30
2015,07,05,04,23,17.30
2015,07,05,04,24,17.20
2015,07,05,04,25,17.20
2015,07,05,04,26,17.20
2015,07,05,04,27,17.20
2015,07,05,04,28,17.20
2015,07,05,04,29,17.10
2015,07,05,04,30,17.10
2015,07,05,04,31,17.10
2015,07,05,04,32,17.10
2015,07,05,04,33,17.10
2015,07,05,04,34,17.00
2015,07,05,04,35,17.00
2015,07,05,04,36,17.00
2015,07,05,04,37,16.90
2015,07,05,04,38,16.90
2015,07,05,04,39,16.90
2015,07,05,04,40,16.80
2015,07,05,04,41,16.80
2015,07,05,04,42,16.80
2015,07,05,04,43,16.80
2015,07,05,04,44,16.80
2015,07,05,04,45,16.70
2015,07,05,04,46,16.70
2015,07,05,04,47,16.70
2015,07,05,04,48,16.70
2015,07,05,04,49,16.60
2015,07,05,04,50,16.60
2015,07,05,04,51,16.60
2015,07,05,04,52,16.60
2015,07,05,04,53,16.50
2015,07,05,04,54,16.50
2015,07,05,04,55,16.40
2015,07,05,04,56,16.40
2015,07,05,04,57,16.40
2015,07,05,04,58,16.30
2015,07,05,04,59,16.30
2015,07,05,05,00,16.20
2015,07,05,05,01,16.20
2015,07,05,05,02,16.20
2015,07,05,05,03,16.20
2015,07,05,05,04,16.20
2015,07,05,05,05,16.20
2015,07,05,05,06,16.20
2015,07,05,05,07,16.10
2015,07,05,05,08,16.10
2015,07,05,05,09,16.10
2015,07,05,05,10,16.10
2015,07,05,05,11,16.10
2015,07,05,05,12,16.10
2015,07,05,05,13,16.10
2015,07,05,05,14,16.00
2015,07,05,05,15,16.10
2015,07,05,05,16,16.00
2015,07,05,05,17,16.00
2015,07,05,05,18,16.00
2015,07,05,05,19,16.00
2015,07,05,05,20,15.90
2015,07,05,05,21,15.90
2015,07,05,05,22,15.90
2015,07,05,05,23,15.90
2015,07,05,05,24,15.90
2015,07,05,05,25,15.80
2015,07,05,05,26,15.80
2015,07,05,05,27,15.80
2015,07,05,05,28,15.80
2015,07,05,05,29,15.80
2015,07,05,05,30,15.70
2015,07,05,05,31,15.70
2015,07,05,05,32,15.70
2015,07,05,05,33,15.70
2015,07,05,05,34,15.70
2015,07,05,05,35,15.70
2015,07,05,05,36,15.70
2015,07,05,05,37,15.70
2015,07,05,05,38,15.70
2015,07,05,05,39,15.70
2015,07,05,05,40,15.70
2015,07,05,05,41,15.60
2015,07,05,05,42,15.60
2015,07,05,05,43,15.60
2015,07,05,05,44,15.60
2015,07,05,05,45,15.60
2015,07,05,05,46,15.60
2015,07,05,05,47,15.60
2015,07,05,05,48,15.60
2015,07,05,05,49,15.60
2015,07,05,05,50,15.60
2015,07,05,05,51,15.60
2015,07,05,05,52,15.60
2015,07,05,05,53,15.60
2015,07,05,05,54,15.70
2015,07,05,05,55,15.70
2015,07,05,05,56,15.70
2015,07,05,05,57,15.70
2015,07,05,05,58,15.70
2015,07,05,05,59,15.70
2015,07,05,06,00,15.70
2015,07,05,06,01,15.70
2015,07,05,06,02,15.70
2015,07,05,06,03,15.70
2015,07,05,06,04,15.70
2015,07,05,06,05,15.70
2015,07,05,06,06,15.70
2015,07,05,06,07,15.70
2015,07,05,06,08,15.70
2015,07,05,06,09,15.70
2015,07,05,06,10,15.70
2015,07,05,06,11,15.70
2015,07,05,06,12,15.70
2015,07,05,06,13,15.70
2015,07,05,06,14,15.70
2015,07,05,06,15,15.70
2015,07,05,06,16,15.70
2015,07,05,06,17,15.70
2015,07,05,06,18,15.70
2015,07,05,06,19,15.70
2015,07,05,06,20,15.70
2015,07,05,06,21,15.70
2015,07,05,06,22,15.70
2015,07,05,06,23,15.70
2015,07,05,06,24,15.80
2015,07,05,06,25,15.80
2015,07,05,06,26,15.80
2015,07,05,06,27,15.80
2015,07,05,06,28,15.80
2015,07,05,06,29,15.80
2015,07,05,06,30,15.90
2015,07,05,06,31,15.90
2015,07,05,06,32,15.90
2015,07,05,06,33,15.90
2015,07,05,06,34,15.90
2015,07,05,06,35,15.90
2015,07,05,06,36,15.90
2015,07,05,06,37,16.00
2015,07,05,06,38,16.00
2015,07,05,06,39,16.00
2015,07,05,06,40,16.00
2015,07,05,06,41,16.00
2015,07,05,06,42,16.10
2015,07,05,06,43,16.10
2015,07,05,06,44,16.10
2015,07,05,06,45,16.10
2015,07,05,06,46,16.20
2015,07,05,06,47,16.20
2015,07,05,06,48,16.30
2015,07,05,06,49,16.30
2015,07,05,06,50,16.30
2015,07,05,06,51,16.40
2015,07,05,06,52,16.40
2015,07,05,06,53,16.40
2015,07,05,06,54,16.40
2015,07,05,06,55,16.40
2015,07,05,06,56,16.50
2015,07,05,06,57,16.50
2015,07,05,06,58,16.60
2015,07,05,06,59,16.60
2015,07,05,07,00,16.60
2015,07,05,07,01,16.60
2015,07,05,07,02,16.70
2015,07,05,07,03,16.70
2015,07,05,07,04,16.80
2015,07,05,07,05,16.80
2015,07,05,07,06,16.90
2015,07,05,07,07,16.90
2015,07,05,07,08,16.90
2015,07,05,07,09,17.00
2015,07,05,07,10,17.00
2015,07,05,07,11,17.10
2015,07,05,07,12,17.20
2015,07,05,07,13,17.30
2015,07,05,07,14,17.40
2015,07,05,07,15,17.40
2015,07,05,07,16,17.50
2015,07,05,07,17,17.60
2015,07,05,07,18,17.70
2015,07,05,07,19,17.70
2015,07,05,07,20,17.80
2015,07,05,07,21,17.80
2015,07,05,07,22,17.90
2015,07,05,07,23,18.00
2015,07,05,07,24,18.10
2015,07,05,07,25,18.10
2015,07,05,07,26,18.20
2015,07,05,07,27,18.30
2015,07,05,07,28,18.30
2015,07,05,07,29,18.40
2015,07,05,07,30,18.50
2015,07,05,07,31,18.60
2015,07,05,07,32,18.60
2015,07,05,07,33,18.70
2015,07,05,07,34,18.80
2015,07,05,07,35,18.90
2015,07,05,07,36,19.00
2015,07,05,07,37,19.10
2015,07,05,07,38,19.20
2015,07,05,07,39,19.20
2015,07,05,07,40,19.30
2015,07,05,07,41,19.40
2015,07,05,07,42,19.40
2015,07,05,07,43,19.50
2015,07,05,07,44,19.60
2015,07,05,07,45,19.60
2015,07,05,07,46,19.70
2015,07,05,07,47,19.80
2015,07,05,07,48,19.80
2015,07,05,07,49,19.80
2015,07,05,07,50,19.90
2015,07,05,07,51,19.90
2015,07,05,07,52,19.90
2015,07,05,07,53,19.90
2015,07,05,07,54,20.00
2015,07,05,07,55,20.00
2015,07,05,07,56,20.10
2015,07,05,07,57,20.10
2015,07,05,07,58,20.10
2015,07,05,07,59,20.20
2015,07,05,08,00,20.20
2015,07,05,08,01,20.20
2015,07,05,08,02,20.30
2015,07,05,08,03,20.30
2015,07,05,08,04,20.40
2015,07,05,08,05,20.40
2015,07,05,08,06,20.50
2015,07,05,08,07,20.50
2015,07,05,08,08,20.60
2015,07,05,08,09,20.60
2015,07,05,08,10,20.60
2015,07,05,08,11,20.70
2015,07,05,08,12,20.70
2015,07,05,08,13,20.70
2015,07,05,08,14,20.70
2015,07,05,08,15,20.80
2015,07,05,08,16,20.80
2015,07,05,08,17,20.80
2015,07,05,08,18,20.90
2015,07,05,08,19,20.90
2015,07,05,08,20,21.00
2015,07,05,08,21,21.00
2015,07,05,08,22,21.10
2015,07,05,08,23,21.10
2015,07,05,08,24,21.20
2015,07,05,08,25,21.20
2015,07,05,08,26,21.20
2015,07,05,08,27,21.30
2015,07,05,08,28,21.30
2015,07,05,08,29,21.40
2015,07,05,08,30,21.50
2015,07,05,08,31,21.50
2015,07,05,08,32,21.60
2015,07,05,08,33,21.60
2015,07,05,08,34,21.70
2015,07,05,08,35,21.80
2015,07,05,08,36,21.80
2015,07,05,08,37,21.90
2015,07,05,08,38,21.90
2015,07,05,08,39,22.00
2015,07,05,08,40,22.00
2015,07,05,08,41,22.10
2015,07,05,08,42,22.20
2015,07,05,08,43,22.20
2015,07,05,08,44,22.20
2015,07,05,08,45,22.30
2015,07,05,08,46,22.30
2015,07,05,08,47,22.40
2015,07,05,08,48,22.40
2015,07,05,08,49,22.50
2015,07,05,08,50,22.50
2015,07,05,08,51,22.50
2015,07,05,08,52,22.60
2015,07,05,08,53,22.60
2015,07,05,08,54,22.60
2015,07,05,08,55,22.60
2015,07,05,08,56,22.70
2015,07,05,08,57,22.70
2015,07,05,08,58,22.70
2015,07,05,08,59,22.70
2015,07,05,09,00,22.80
2015,07,05,09,01,22.90
2015,07,05,09,02,22.90
2015,07,05,09,03,22.90
2015,07,05,09,04,22.90
2015,07,05,09,05,23.00
2015,07,05,09,06,23.00
2015,07,05,09,07,23.00
2015,07,05,09,08,23.10
2015,07,05,09,09,23.10
2015,07,05,09,10,23.10
2015,07,05,09,11,23.20
2015,07,05,09,12,23.20
2015,07,05,09,13,23.30
2015,07,05,09,14,23.30
2015,07,05,09,15,23.30
2015,07,05,09,16,23.40
2015,07,05,09,17,23.40
2015,07,05,09,18,23.50
2015,07,05,09,19,23.50
2015,07,05,09,20,23.60
2015,07,05,09,21,23.60
2015,07,05,09,22,23.70
2015,07,05,09,23,23.70
2015,07,05,09,24,23.80
2015,07,05,09,25,23.80
2015,07,05,09,26,23.90
2015,07,05,09,27,23.90
2015,07,05,09,28,24.00
2015,07,05,09,29,24.10
2015,07,05,09,30,24.10
2015,07,05,09,31,24.20
2015,07,05,09,32,24.20
2015,07,05,09,33,24.30
2015,07,05,09,34,24.30
2015,07,05,09,35,24.40
2015,07,05,09,36,24.40
2015,07,05,09,37,24.50
2015,07,05,09,38,24.50
2015,07,05,09,39,24.60
2015,07,05,09,40,24.60
2015,07,05,09,41,24.70
2015,07,05,09,42,24.70
2015,07,05,09,43,24.70
2015,07,05,09,44,24.70
2015,07,05,09,45,24.70
2015,07,05,09,46,24.70
2015,07,05,09,47,24.70
2015,07,05,09,48,24.70
2015,07,05,09,49,24.70
2015,07,05,09,50,24.70
2015,07,05,09,51,24.70
2015,07,05,09,52,24.70
2015,07,05,09,53,24.70
2015,07,05,09,54,24.70
2015,07,05,09,55,24.80
2015,07,05,09,56,24.80
2015,07,05,09,57,24.80
2015,07,05,09,58,24.90
2015,07,05,09,59,24.90
2015,07,05,10,00,25.00
2015,07,05,10,01,25.10
2015,07,05,10,02,25.10
2015,07,05,10,03,25.20
2015,07,05,10,04,25.20
2015,07,05,10,05,25.20
2015,07,05,10,06,25.20
2015,07,05,10,07,25.20
2015,07,05,10,08,25.20
2015,07,05,10,09,25.20
2015,07,05,10,10,25.20
2015,07,05,10,11,25.20
2015,07,05,10,12,25.20
2015,07,05,10,13,25.20
2015,07,05,10,14,25.10
2015,07,05,10,15,25.10
2015,07,05,10,16,25.10
2015,07,05,10,17,25.00
2015,07,05,10,18,25.00
2015,07,05,10,19,25.00
2015,07,05,10,20,25.00
2015,07,05,10,21,24.90
2015,07,05,10,22,24.90
2015,07,05,10,23,24.90
2015,07,05,10,24,24.90
2015,07,05,10,25,24.90
2015,07,05,10,26,24.80
2015,07,05,10,27,24.80
2015,07,05,10,28,24.80
2015,07,05,10,29,24.80
2015,07,05,10,30,24.70
2015,07,05,10,31,24.70
2015,07,05,10,32,24.70
2015,07,05,10,33,24.70
2015,07,05,10,34,24.70
2015,07,05,10,35,24.70
2015,07,05,10,36,24.70
2015,07,05,10,37,24.70
2015,07,05,10,38,24.70
2015,07,05,10,39,24.80
2015,07,05,10,40,24.80
2015,07,05,10,41,24.80
2015,07,05,10,42,24.80
2015,07,05,10,43,24.80
2015,07,05,10,44,24.90
2015,07,05,10,45,24.90
2015,07,05,10,46,25.00
2015,07,05,10,47,25.00
2015,07,05,10,48,25.10
2015,07,05,10,49,25.10
2015,07,05,10,50,25.10
2015,07,05,10,51,25.20
2015,07,05,10,52,25.20
2015,07,05,10,53,25.20
2015,07,05,10,54,25.10
2015,07,05,10,55,25.10
2015,07,05,10,56,25.10
2015,07,05,10,57,25.10
2015,07,05,10,58,25.00
2015,07,05,10,59,25.00
2015,07,05,11,00,25.00
2015,07,05,11,01,25.00
2015,07,05,11,02,25.00
2015,07,05,11,03,25.00
2015,07,05,11,04,25.00
2015,07,05,11,05,24.90
2015,07,05,11,06,24.90
2015,07,05,11,07,24.90
2015,07,05,11,08,24.80
2015,07,05,11,09,24.80
2015,07,05,11,10,24.70
2015,07,05,11,11,24.60
2015,07,05,11,12,24.50
2015,07,05,11,13,24.50
2015,07,05,11,14,24.40
2015,07,05,11,15,24.40
2015,07,05,11,16,24.30
2015,07,05,11,17,24.30
2015,07,05,11,18,24.30
2015,07,05,11,19,24.30
2015,07,05,11,20,24.30
2015,07,05,11,21,24.20
2015,07,05,11,22,24.20
2015,07,05,11,23,24.20
2015,07,05,11,24,24.20
2015,07,05,11,25,24.10
2015,07,05,11,26,24.10
2015,07,05,11,27,24.10
2015,07,05,11,28,24.10
2015,07,05,11,29,24.10
2015,07,05,11,30,24.00
2015,07,05,11,31,24.00
2015,07,05,11,32,23.90
2015,07,05,11,33,23.90
2015,07,05,11,34,23.90
2015,07,05,11,35,23.90
2015,07,05,11,36,23.80
2015,07,05,11,37,23.80
2015,07,05,11,38,23.80
2015,07,05,11,39,23.80
2015,07,05,11,40,23.80
2015,07,05,11,41,23.80
2015,07,05,11,42,23.80
2015,07,05,11,43,23.80
2015,07,05,11,44,23.80
2015,07,05,11,45,23.80
2015,07,05,11,46,23.80
2015,07,05,11,47,23.80
2015,07,05,11,48,23.80
2015,07,05,11,49,23.80
2015,07,05,11,50,23.90
2015,07,05,11,51,24.00
2015,07,05,11,52,24.00
2015,07,05,11,53,24.00
2015,07,05,11,54,24.10
2015,07,05,11,55,24.10
2015,07,05,11,56,24.20
2015,07,05,11,57,24.20
2015,07,05,11,58,24.20
2015,07,05,11,59,24.30
2015,07,05,12,00,24.30
2015,07,05,12,01,24.30
2015,07,05,12,02,24.30
2015,07,05,12,03,24.30
2015,07,05,12,04,24.30
2015,07,05,12,05,24.30
2015,07,05,12,06,24.30
2015,07,05,12,07,24.30
2015,07,05,12,08,24.30
2015,07,05,12,09,24.30
2015,07,05,12,10,24.40
2015,07,05,12,11,24.40
2015,07,05,12,12,24.40
2015,07,05,12,13,24.40
2015,07,05,12,14,24.50
2015,07,05,12,15,24.70
2015,07,05,12,16,24.80
2015,07,05,12,17,24.90
2015,07,05,12,18,25.00
2015,07,05,12,19,25.00
2015,07,05,12,20,25.10
2015,07,05,12,21,25.10
2015,07,05,12,22,25.20
2015,07,05,12,23,25.20
2015,07,05,12,24,25.30
2015,07,05,12,25,25.30
2015,07,05,12,26,25.40
2015,07,05,12,27,25.50
2015,07,05,12,28,25.60
2015,07,05,12,29,25.70
2015,07,05,12,30,25.80
2015,07,05,12,31,25.80
2015,07,05,12,32,25.90
2015,07,05,12,33,26.00
2015,07,05,12,34,26.10
2015,07,05,12,35,26.20
2015,07,05,12,36,26.30
2015,07,05,12,37,26.30
2015,07,05,12,38,26.40
2015,07,05,12,39,26.40
2015,07,05,12,40,26.40
2015,07,05,12,41,26.50
2015,07,05,12,42,26.50
2015,07,05,12,43,26.60
2015,07,05,12,44,26.60
2015,07,05,12,45,26.70
2015,07,05,12,46,26.70
2015,07,05,12,47,26.80
2015,07,05,12,48,26.80
2015,07,05,12,49,26.80
2015,07,05,12,50,26.80
2015,07,05,12,51,26.80
2015,07,05,12,52,26.70
2015,07,05,12,53,26.50
2015,07,05,12,54,26.40
2015,07,05,12,55,26.30
2015,07,05,12,56,26.20
2015,07,05,12,57,26.00
2015,07,05,12,58,25.90
2015,07,05,12,59,25.80
2015,07,05,13,00,25.70
2015,07,05,13,01,25.60
2015,07,05,13,02,25.50
2015,07,05,13,03,25.50
2015,07,05,13,04,25.50
2015,07,05,13,05,25.40
2015,07,05,13,06,25.40
2015,07,05,13,07,25.40
2015,07,05,13,08,25.40
2015,07,05,13,09,25.40
2015,07,05,13,10,25.40
2015,07,05,13,11,25.40
2015,07,05,13,12,25.30
2015,07,05,13,13,25.30
2015,07,05,13,14,25.30
2015,07,05,13,15,25.30
2015,07,05,13,16,25.20
2015,07,05,13,17,25.20
2015,07,05,13,18,25.20
2015,07,05,13,19,25.20
2015,07,05,13,20,25.20
2015,07,05,13,21,25.20
2015,07,05,13,22,25.20
2015,07,05,13,23,25.20
2015,07,05,13,24,25.20
2015,07,05,13,25,25.30
2015,07,05,13,26,25.30
2015,07,05,13,27,25.30
2015,07,05,13,28,25.30
2015,07,05,13,29,25.40
2015,07,05,13,30,25.40
2015,07,05,13,31,25.40
2015,07,05,13,32,25.40
2015,07,05,13,33,25.40
2015,07,05,13,34,25.40
2015,07,05,13,35,25.50
2015,07,05,13,36,25.60
2015,07,05,13,37,25.60
2015,07,05,13,38,25.60
2015,07,05,13,39,25.70
2015,07,05,13,40,25.70
2015,07,05,13,41,25.80
2015,07,05,13,42,25.90
2015,07,05,13,43,25.90
2015,07,05,13,44,26.00
2015,07,05,13,45,26.00
2015,07,05,13,46,26.10
2015,07,05,13,47,26.10
2015,07,05,13,48,26.20
2015,07,05,13,49,26.20
2015,07,05,13,50,26.20
2015,07,05,13,51,26.30
2015,07,05,13,52,26.30
2015,07,05,13,53,26.40
2015,07,05,13,54,26.40
2015,07,05,13,55,26.40
2015,07,05,13,56,26.50
2015,07,05,13,57,26.40
2015,07,05,13,58,26.50
2015,07,05,13,59,26.50
2015,07,05,14,00,26.50
2015,07,05,14,01,26.50
2015,07,05,14,02,26.50
2015,07,05,14,03,26.50
2015,07,05,14,04,26.50
2015,07,05,14,05,26.50
2015,07,05,14,06,26.50
2015,07,05,14,07,26.50
2015,07,05,14,08,26.50
2015,07,05,14,09,26.60
2015,07,05,14,10,26.60
2015,07,05,14,11,26.60
2015,07,05,14,12,26.70
2015,07,05,14,13,26.70
2015,07,05,14,14,26.80
2015,07,05,14,15,26.80
2015,07,05,14,16,26.90
2015,07,05,14,17,26.90
2015,07,05,14,18,27.00
2015,07,05,14,19,27.00
2015,07,05,14,20,27.10
2015,07,05,14,21,27.20
2015,07,05,14,22,27.20
2015,07,05,14,23,27.30
2015,07,05,14,24,27.30
2015,07,05,14,25,27.40
2015,07,05,14,26,27.50
2015,07,05,14,27,27.50
2015,07,05,14,28,27.60
2015,07,05,14,29,27.70
2015,07,05,14,30,27.70
2015,07,05,14,31,27.70
2015,07,05,14,32,27.70
2015,07,05,14,33,27.70
2015,07,05,14,34,27.70
2015,07,05,14,35,27.70
2015,07,05,14,36,27.60
2015,07,05,14,37,27.60
2015,07,05,14,38,27.60
2015,07,05,14,39,27.50
2015,07,05,14,40,27.50
2015,07,05,14,41,27.40
2015,07,05,14,42,27.40
2015,07,05,14,43,27.40
2015,07,05,14,44,27.50
2015,07,05,14,45,27.50
2015,07,05,14,46,27.60
2015,07,05,14,47,27.60
2015,07,05,14,48,27.70
2015,07,05,14,49,27.70
2015,07,05,14,50,27.70
2015,07,05,14,51,27.70
2015,07,05,14,52,27.70
2015,07,05,14,53,27.70
2015,07,05,14,54,27.70
2015,07,05,14,55,27.70
2015,07,05,14,56,27.80
2015,07,05,14,57,27.80
2015,07,05,14,58,27.90
2015,07,05,14,59,28.00
2015,07,05,15,00,28.00
2015,07,05,15,01,28.10
2015,07,05,15,02,28.20
2015,07,05,15,03,28.30
2015,07,05,15,04,28.40
2015,07,05,15,05,28.50
2015,07,05,15,06,28.60
2015,07,05,15,07,28.60
2015,07,05,15,08,28.70
2015,07,05,15,09,28.70
2015,07,05,15,10,28.80
2015,07,05,15,11,28.80
2015,07,05,15,12,28.90
2015,07,05,15,13,29.00
2015,07,05,15,14,29.00
2015,07,05,15,15,29.10
2015,07,05,15,16,29.20
2015,07,05,15,17,29.20
2015,07,05,15,18,29.30
2015,07,05,15,19,29.30
2015,07,05,15,20,29.30
2015,07,05,15,21,29.30
2015,07,05,15,22,29.20
2015,07,05,15,23,29.20
2015,07,05,15,24,29.20
2015,07,05,15,25,29.20
2015,07,05,15,26,29.20
2015,07,05,15,27,29.20
2015,07,05,15,28,29.20
2015,07,05,15,29,29.20
2015,07,05,15,30,29.20
2015,07,05,15,31,29.30
2015,07,05,15,32,29.30
2015,07,05,15,33,29.30
2015,07,05,15,34,29.40
2015,07,05,15,35,29.40
2015,07,05,15,36,29.40
2015,07,05,15,37,29.40
2015,07,05,15,38,29.40
2015,07,05,15,39,29.30
2015,07,05,15,40,29.30
2015,07,05,15,41,29.30
2015,07,05,15,42,29.30
2015,07,05,15,43,29.20
2015,07,05,15,44,29.20
2015,07,05,15,45,29.20
2015,07,05,15,46,29.20
2015,07,05,15,47,29.10
2015,07,05,15,48,29.10
2015,07,05,15,49,29.10
2015,07,05,15,50,29.10
2015,07,05,15,51,29.00
2015,07,05,15,52,29.00
2015,07,05,15,53,28.90
2015,07,05,15,54,28.80
2015,07,05,15,55,28.80
2015,07,05,15,56,28.70
2015,07,05,15,57,28.60
2015,07,05,15,58,28.60
2015,07,05,15,59,28.50
2015,07,05,16,00,28.50
2015,07,05,16,01,28.50
2015,07,05,16,02,28.50
2015,07,05,16,03,28.40
2015,07,05,16,04,28.40
2015,07,05,16,05,28.30
2015,07,05,16,06,28.20
2015,07,05,16,07,28.10
2015,07,05,16,08,28.10
2015,07,05,16,09,28.00
2015,07,05,16,10,28.00
2015,07,05,16,11,28.00
2015,07,05,16,12,28.00
2015,07,05,16,13,28.00
2015,07,05,16,14,27.90
2015,07,05,16,15,27.90
2015,07,05,16,16,27.90
2015,07,05,16,17,27.90
2015,07,05,16,18,27.90
2015,07,05,16,19,27.80
2015,07,05,16,20,27.80
2015,07,05,16,21,27.80
2015,07,05,16,22,27.80
2015,07,05,16,23,27.80
2015,07,05,16,24,27.80
2015,07,05,16,25,27.80
2015,07,05,16,26,27.80
2015,07,05,16,27,27.80
2015,07,05,16,28,27.80
2015,07,05,16,29,27.70
2015,07,05,16,30,27.70
2015,07,05,16,31,27.60
2015,07,05,16,32,27.60
2015,07,05,16,33,27.50
2015,07,05,16,34,27.50
2015,07,05,16,35,27.40
2015,07,05,16,36,27.30
2015,07,05,16,37,27.30
2015,07,05,16,38,27.20
2015,07,05,16,39,27.20
2015,07,05,16,40,27.20
2015,07,05,16,41,27.10
2015,07,05,16,42,27.10
2015,07,05,16,43,27.10
2015,07,05,16,44,27.20
2015,07,05,16,45,27.20
2015,07,05,16,46,27.20
2015,07,05,16,47,27.30
2015,07,05,16,48,27.30
2015,07,05,16,49,27.30
2015,07,05,16,50,27.40
2015,07,05,16,51,27.50
2015,07,05,16,52,27.50
2015,07,05,16,53,27.60
2015,07,05,16,54,27.60
2015,07,05,16,55,27.60
2015,07,05,16,56,27.70
2015,07,05,16,57,27.70
2015,07,05,16,58,27.70
2015,07,05,16,59,27.80
2015,07,05,17,00,27.80
2015,07,05,17,01,27.80
2015,07,05,17,02,27.90
2015,07,05,17,03,27.90
2015,07,05,17,04,27.90
2015,07,05,17,05,28.00
2015,07,05,17,06,28.00
2015,07,05,17,07,28.10
2015,07,05,17,08,28.10
2015,07,05,17,09,28.20
2015,07,05,17,10,28.30
2015,07,05,17,11,28.30
2015,07,05,17,12,28.40
2015,07,05,17,13,28.40
2015,07,05,17,14,28.50
2015,07,05,17,15,28.50
2015,07,05,17,16,28.60
2015,07,05,17,17,28.70
2015,07,05,17,18,28.70
2015,07,05,17,19,28.70